contact:dominique.lefevre@mio.osupytheas.fr, maurice.libes@osupytheas.fr, didier.mallarino@osupytheas.fr
Project:EMSO http://www.emso-fr.org/EMSO-France
Depth: 2436.0 m
Title:EMSO Ligure Ouest : Data MII capteur MICROCAT
DateTime_Computer,Latitude,Longitude,Temperature,Conductivity,Pressure,DateTime_Instrument
DateTime_Computer,Latitude,Longitude,degC,S m-1,dbar,DateTime_Instrument
2019-06-24T00:02:57Z,42.805,6.029,13.2961,4.59962,2469.937,2019-6-24T02:03:14Z
2019-06-24T00:06:00Z,42.805,6.029,13.2955,4.59956,2469.97,2019-6-24T02:06:17Z
2019-06-24T00:09:03Z,42.805,6.029,13.2950,4.59956,2469.947,2019-6-24T02:09:20Z
2019-06-24T00:12:06Z,42.805,6.029,13.2962,4.59961,2469.96,2019-6-24T02:12:23Z
2019-06-24T00:15:09Z,42.805,6.029,13.2971,4.59955,2469.984,2019-6-24T02:15:26Z
2019-06-24T00:18:12Z,42.805,6.029,13.2953,4.59955,2469.984,2019-6-24T02:18:28Z
2019-06-24T00:21:15Z,42.805,6.029,13.2953,4.59955,2470.007,2019-6-24T02:21:31Z
2019-06-24T00:24:18Z,42.805,6.029,13.2957,4.59956,2469.947,2019-6-24T02:24:34Z
2019-06-24T00:27:21Z,42.805,6.029,13.2959,4.59956,2469.97,2019-6-24T02:27:37Z
2019-06-24T00:30:24Z,42.805,6.029,13.2958,4.59958,2469.97,2019-6-24T02:30:40Z
2019-06-24T00:33:26Z,42.805,6.029,13.2956,4.59955,2469.947,2019-6-24T02:33:43Z
2019-06-24T00:36:29Z,42.805,6.029,13.2954,4.59955,2469.937,2019-6-24T02:36:46Z
2019-06-24T00:39:32Z,42.805,6.029,13.2958,4.59956,2469.947,2019-6-24T02:39:49Z
2019-06-24T00:42:35Z,42.805,6.029,13.2956,4.59960,2469.984,2019-6-24T02:42:52Z
2019-06-24T00:45:38Z,42.805,6.029,13.2957,4.59961,2469.97,2019-6-24T02:45:55Z
2019-06-24T00:48:41Z,42.805,6.029,13.2955,4.59955,2469.984,2019-6-24T02:48:58Z
2019-06-24T00:51:44Z,42.805,6.029,13.2956,4.59961,2469.97,2019-6-24T02:52:01Z
2019-06-24T00:54:47Z,42.805,6.029,13.2958,4.59954,2469.96,2019-6-24T02:55:04Z
2019-06-24T00:57:50Z,42.805,6.029,13.2958,4.59955,2469.984,2019-6-24T02:58:07Z
2019-06-24T01:00:53Z,42.805,6.029,13.2957,4.59952,2469.96,2019-6-24T03:01:10Z
2019-06-24T01:03:56Z,42.805,6.029,13.2955,4.59954,2469.96,2019-6-24T03:04:13Z
2019-06-24T01:06:59Z,42.805,6.029,13.2958,4.59955,2469.96,2019-6-24T03:07:16Z
2019-06-24T01:10:02Z,42.805,6.029,13.2958,4.59955,2469.923,2019-6-24T03:10:19Z
2019-06-24T01:13:05Z,42.805,6.029,13.2956,4.59961,2469.96,2019-6-24T03:13:22Z
2019-06-24T01:16:08Z,42.805,6.029,13.2958,4.59955,2469.96,2019-6-24T03:16:24Z
2019-06-24T01:19:11Z,42.805,6.029,13.2956,4.59955,2469.96,2019-6-24T03:19:27Z
2019-06-24T01:22:14Z,42.805,6.029,13.2961,4.59957,2469.96,2019-6-24T03:22:30Z
2019-06-24T01:25:17Z,42.805,6.029,13.2955,4.59958,2469.937,2019-6-24T03:25:33Z
2019-06-24T01:28:20Z,42.805,6.029,13.2957,4.59966,2469.96,2019-6-24T03:28:36Z
2019-06-24T01:31:23Z,42.805,6.029,13.2956,4.59962,2469.914,2019-6-24T03:31:39Z
2019-06-24T01:34:25Z,42.805,6.029,13.2953,4.59965,2469.947,2019-6-24T03:34:42Z
2019-06-24T01:37:28Z,42.805,6.029,13.2953,4.59956,2469.947,2019-6-24T03:37:45Z
2019-06-24T01:40:31Z,42.805,6.029,13.2958,4.59956,2469.937,2019-6-24T03:40:48Z
2019-06-24T01:43:34Z,42.805,6.029,13.2967,4.59959,2469.96,2019-6-24T03:43:51Z
2019-06-24T01:46:37Z,42.805,6.029,13.2955,4.59964,2469.96,2019-6-24T03:46:54Z
2019-06-24T01:49:40Z,42.805,6.029,13.2963,4.59958,2469.947,2019-6-24T03:49:57Z
2019-06-24T01:52:43Z,42.805,6.029,13.2957,4.59966,2469.97,2019-6-24T03:53:00Z
2019-06-24T01:55:46Z,42.805,6.029,13.2961,4.59964,2469.96,2019-6-24T03:56:03Z
2019-06-24T01:58:49Z,42.805,6.029,13.2957,4.59958,2469.89,2019-6-24T03:59:06Z
2019-06-24T02:01:52Z,42.805,6.029,13.2961,4.59963,2469.923,2019-6-24T04:02:09Z
2019-06-24T02:04:55Z,42.805,6.029,13.2957,4.59956,2469.947,2019-6-24T04:05:12Z
2019-06-24T02:07:58Z,42.805,6.029,13.2955,4.59958,2469.947,2019-6-24T04:08:15Z
2019-06-24T02:11:01Z,42.805,6.029,13.2957,4.59958,2469.914,2019-6-24T04:11:18Z
2019-06-24T02:14:04Z,42.805,6.029,13.2957,4.59966,2469.947,2019-6-24T04:14:20Z
2019-06-24T02:17:07Z,42.805,6.029,13.2956,4.59957,2469.947,2019-6-24T04:17:23Z
2019-06-24T02:20:10Z,42.805,6.029,13.2958,4.59956,2469.923,2019-6-24T04:20:26Z
2019-06-24T02:23:13Z,42.805,6.029,13.2956,4.59956,2469.947,2019-6-24T04:23:29Z
2019-06-24T02:26:16Z,42.805,6.029,13.2957,4.59969,2469.923,2019-6-24T04:26:32Z
2019-06-24T02:29:19Z,42.805,6.029,13.2958,4.59970,2469.947,2019-6-24T04:29:35Z
2019-06-24T02:32:21Z,42.805,6.029,13.2957,4.59966,2469.947,2019-6-24T04:32:38Z
2019-06-24T02:35:24Z,42.805,6.029,13.2955,4.59961,2469.937,2019-6-24T04:35:41Z
2019-06-24T02:38:27Z,42.805,6.029,13.2957,4.59959,2469.923,2019-6-24T04:38:44Z
2019-06-24T02:41:30Z,42.805,6.029,13.2956,4.59964,2469.947,2019-6-24T04:41:47Z
2019-06-24T02:44:33Z,42.805,6.029,13.2956,4.59958,2469.89,2019-6-24T04:44:50Z
2019-06-24T02:47:36Z,42.805,6.029,13.2957,4.59964,2469.914,2019-6-24T04:47:53Z
2019-06-24T02:50:39Z,42.805,6.029,13.2955,4.59958,2469.914,2019-6-24T04:50:56Z
2019-06-24T02:53:42Z,42.805,6.029,13.2955,4.59965,2469.89,2019-6-24T04:53:59Z
2019-06-24T02:56:45Z,42.805,6.029,13.2956,4.59958,2469.914,2019-6-24T04:57:02Z
2019-06-24T02:59:48Z,42.805,6.029,13.2958,4.59956,2469.923,2019-6-24T05:00:05Z
2019-06-24T03:02:51Z,42.805,6.029,13.2960,4.59958,2469.914,2019-6-24T05:03:08Z
2019-06-24T03:05:54Z,42.805,6.029,13.2957,4.59956,2469.937,2019-6-24T05:06:11Z
2019-06-24T03:08:57Z,42.805,6.029,13.2957,4.59957,2469.937,2019-6-24T05:09:14Z
2019-06-24T03:12:00Z,42.805,6.029,13.2957,4.59964,2469.937,2019-6-24T05:12:17Z
2019-06-24T03:15:03Z,42.805,6.029,13.2959,4.59958,2469.9,2019-6-24T05:15:19Z
2019-06-24T03:18:06Z,42.805,6.029,13.2961,4.59957,2469.9,2019-6-24T05:18:22Z
2019-06-24T03:21:09Z,42.805,6.029,13.2964,4.59956,2469.937,2019-6-24T05:21:25Z
2019-06-24T03:24:12Z,42.805,6.029,13.2964,4.59958,2469.914,2019-6-24T05:24:28Z
2019-06-24T03:27:15Z,42.805,6.029,13.2958,4.59957,2469.914,2019-6-24T05:27:31Z
2019-06-24T03:30:17Z,42.805,6.029,13.2958,4.59957,2469.9,2019-6-24T05:30:34Z
2019-06-24T03:33:20Z,42.805,6.029,13.2960,4.59955,2469.914,2019-6-24T05:33:37Z
2019-06-24T03:36:23Z,42.805,6.029,13.2954,4.59955,2469.923,2019-6-24T05:36:40Z
2019-06-24T03:39:26Z,42.805,6.029,13.2959,4.59960,2469.9,2019-6-24T05:39:43Z
2019-06-24T03:42:29Z,42.805,6.029,13.2958,4.59968,2469.89,2019-6-24T05:42:46Z
2019-06-24T03:45:32Z,42.805,6.029,13.2961,4.59958,2469.89,2019-6-24T05:45:49Z
2019-06-24T03:48:35Z,42.805,6.029,13.2958,4.59964,2469.9,2019-6-24T05:48:52Z
2019-06-24T03:51:38Z,42.805,6.029,13.2958,4.59964,2469.876,2019-6-24T05:51:55Z
2019-06-24T03:54:41Z,42.805,6.029,13.2961,4.59956,2469.853,2019-6-24T05:54:58Z
2019-06-24T03:57:44Z,42.805,6.029,13.2957,4.59958,2469.867,2019-6-24T05:58:01Z
2019-06-24T04:00:47Z,42.805,6.029,13.2964,4.59955,2469.853,2019-6-24T06:01:04Z
2019-06-24T04:03:50Z,42.805,6.029,13.2961,4.59958,2469.914,2019-6-24T06:04:07Z
2019-06-24T04:06:53Z,42.805,6.029,13.2962,4.59956,2469.867,2019-6-24T06:07:10Z
2019-06-24T04:09:56Z,42.805,6.029,13.2958,4.59957,2469.853,2019-6-24T06:10:13Z
2019-06-24T04:12:59Z,42.805,6.029,13.2957,4.59958,2469.876,2019-6-24T06:13:16Z
2019-06-24T04:16:02Z,42.805,6.029,13.2961,4.59968,2469.867,2019-6-24T06:16:18Z
2019-06-24T04:19:05Z,42.805,6.029,13.2960,4.59958,2469.89,2019-6-24T06:19:21Z
2019-06-24T04:22:08Z,42.805,6.029,13.2958,4.59956,2469.9,2019-6-24T06:22:24Z
2019-06-24T04:25:11Z,42.805,6.029,13.2956,4.59963,2469.867,2019-6-24T06:25:27Z
2019-06-24T04:28:13Z,42.805,6.029,13.2959,4.59957,2469.876,2019-6-24T06:28:30Z
2019-06-24T04:31:16Z,42.805,6.029,13.2960,4.59961,2469.863,2019-6-24T06:31:33Z
2019-06-24T04:34:19Z,42.805,6.029,13.2960,4.59957,2469.867,2019-6-24T06:34:36Z
2019-06-24T04:37:22Z,42.805,6.029,13.2959,4.59955,2469.853,2019-6-24T06:37:39Z
2019-06-24T04:40:25Z,42.805,6.029,13.2957,4.59957,2469.89,2019-6-24T06:40:42Z
2019-06-24T04:43:28Z,42.805,6.029,13.2958,4.59957,2469.89,2019-6-24T06:43:45Z
2019-06-24T04:46:31Z,42.805,6.029,13.2956,4.59955,2469.853,2019-6-24T06:46:48Z
2019-06-24T04:49:34Z,42.805,6.029,13.2959,4.59957,2469.853,2019-6-24T06:49:51Z
2019-06-24T04:52:37Z,42.805,6.029,13.2958,4.59956,2469.853,2019-6-24T06:52:54Z
2019-06-24T04:55:40Z,42.805,6.029,13.2958,4.59955,2469.867,2019-6-24T06:55:57Z
2019-06-24T04:58:43Z,42.805,6.029,13.2958,4.59955,2469.867,2019-6-24T06:59:00Z
2019-06-24T05:01:46Z,42.805,6.029,13.2957,4.59956,2469.867,2019-6-24T07:02:03Z
2019-06-24T05:04:49Z,42.805,6.029,13.2957,4.59961,2469.83,2019-6-24T07:05:06Z
2019-06-24T05:07:52Z,42.805,6.029,13.2967,4.59956,2469.89,2019-6-24T07:08:09Z
2019-06-24T05:10:55Z,42.805,6.029,13.2963,4.59956,2469.821,2019-6-24T07:11:12Z
2019-06-24T05:13:58Z,42.805,6.029,13.2958,4.59966,2469.853,2019-6-24T07:14:14Z
2019-06-24T05:17:01Z,42.805,6.029,13.2958,4.59956,2469.844,2019-6-24T07:17:17Z
2019-06-24T05:20:04Z,42.805,6.029,13.2956,4.59958,2469.853,2019-6-24T07:20:20Z
2019-06-24T05:23:07Z,42.805,6.029,13.2966,4.59956,2469.83,2019-6-24T07:23:23Z
2019-06-24T05:26:10Z,42.805,6.029,13.2960,4.59957,2469.853,2019-6-24T07:26:26Z
2019-06-24T05:29:12Z,42.805,6.029,13.2961,4.59960,2469.839,2019-6-24T07:29:29Z
2019-06-24T05:32:15Z,42.805,6.029,13.2957,4.59958,2469.83,2019-6-24T07:32:32Z
2019-06-24T05:35:18Z,42.805,6.029,13.2961,4.59960,2469.89,2019-6-24T07:35:35Z
2019-06-24T05:38:21Z,42.805,6.029,13.2955,4.59964,2469.83,2019-6-24T07:38:38Z
2019-06-24T05:41:24Z,42.805,6.029,13.2956,4.59957,2469.806,2019-6-24T07:41:41Z
2019-06-24T05:44:27Z,42.805,6.029,13.2961,4.59956,2469.853,2019-6-24T07:44:44Z
2019-06-24T05:47:30Z,42.805,6.029,13.2960,4.59964,2469.853,2019-6-24T07:47:47Z
2019-06-24T05:50:33Z,42.805,6.029,13.2963,4.59958,2469.83,2019-6-24T07:50:50Z
2019-06-24T05:53:36Z,42.805,6.029,13.2958,4.59956,2469.853,2019-6-24T07:53:53Z
2019-06-24T05:56:39Z,42.805,6.029,13.2959,4.59956,2469.853,2019-6-24T07:56:56Z
2019-06-24T05:59:42Z,42.805,6.029,13.2957,4.59956,2469.844,2019-6-24T07:59:59Z
2019-06-24T06:02:45Z,42.805,6.029,13.2958,4.59958,2469.867,2019-6-24T08:03:02Z
2019-06-24T06:05:48Z,42.805,6.029,13.2962,4.59958,2469.867,2019-6-24T08:06:05Z
2019-06-24T06:08:51Z,42.805,6.029,13.2957,4.59958,2469.83,2019-6-24T08:09:08Z
2019-06-24T06:11:54Z,42.805,6.029,13.2957,4.59961,2469.867,2019-6-24T08:12:11Z
2019-06-24T06:14:57Z,42.805,6.029,13.2957,4.59961,2469.853,2019-6-24T08:15:13Z
2019-06-24T06:18:00Z,42.805,6.029,13.2962,4.59961,2469.83,2019-6-24T08:18:16Z
2019-06-24T06:21:03Z,42.805,6.029,13.2957,4.59956,2469.816,2019-6-24T08:21:19Z
2019-06-24T06:24:06Z,42.805,6.029,13.2958,4.59956,2469.844,2019-6-24T08:24:22Z
2019-06-24T06:27:09Z,42.805,6.029,13.2959,4.59956,2469.83,2019-6-24T08:27:25Z
2019-06-24T06:30:11Z,42.805,6.029,13.2956,4.59964,2469.867,2019-6-24T08:30:28Z
2019-06-24T06:33:14Z,42.805,6.029,13.2957,4.59953,2469.844,2019-6-24T08:33:31Z
2019-06-24T06:36:17Z,42.805,6.029,13.2953,4.59954,2469.83,2019-6-24T08:36:34Z
2019-06-24T06:39:20Z,42.805,6.029,13.2956,4.59955,2469.83,2019-6-24T08:39:37Z
2019-06-24T06:42:23Z,42.805,6.029,13.2957,4.59954,2469.844,2019-6-24T08:42:40Z
2019-06-24T06:45:26Z,42.805,6.029,13.2957,4.59954,2469.806,2019-6-24T08:45:43Z
2019-06-24T06:48:29Z,42.805,6.029,13.2957,4.59956,2469.806,2019-6-24T08:48:46Z
2019-06-24T06:51:32Z,42.805,6.029,13.2956,4.59959,2469.876,2019-6-24T08:51:49Z
2019-06-24T06:54:35Z,42.805,6.029,13.2958,4.59960,2469.83,2019-6-24T08:54:52Z
2019-06-24T06:57:38Z,42.805,6.029,13.2956,4.59955,2469.853,2019-6-24T08:57:55Z
2019-06-24T07:00:41Z,42.805,6.029,13.2958,4.59959,2469.83,2019-6-24T09:00:58Z
2019-06-24T07:03:44Z,42.805,6.029,13.2957,4.59957,2469.844,2019-6-24T09:04:01Z
2019-06-24T07:06:47Z,42.805,6.029,13.2953,4.59957,2469.867,2019-6-24T09:07:04Z
2019-06-24T07:09:50Z,42.805,6.029,13.2957,4.59956,2469.867,2019-6-24T09:10:07Z
2019-06-24T07:12:53Z,42.805,6.029,13.2956,4.59956,2469.844,2019-6-24T09:13:09Z
2019-06-24T07:15:56Z,42.805,6.029,13.2958,4.59954,2469.821,2019-6-24T09:16:12Z
2019-06-24T07:18:59Z,42.805,6.029,13.2954,4.59954,2469.83,2019-6-24T09:19:15Z
2019-06-24T07:22:02Z,42.805,6.029,13.2961,4.59956,2469.83,2019-6-24T09:22:18Z
2019-06-24T07:25:04Z,42.805,6.029,13.2954,4.59955,2469.844,2019-6-24T09:25:21Z
2019-06-24T07:28:07Z,42.805,6.029,13.2966,4.59955,2469.806,2019-6-24T09:28:24Z
2019-06-24T07:31:10Z,42.805,6.029,13.2960,4.59955,2469.83,2019-6-24T09:31:27Z
2019-06-24T07:34:13Z,42.805,6.029,13.2957,4.59956,2469.83,2019-6-24T09:34:30Z
2019-06-24T07:37:16Z,42.805,6.029,13.2953,4.59957,2469.83,2019-6-24T09:37:33Z
2019-06-24T07:40:19Z,42.805,6.029,13.2954,4.59955,2469.844,2019-6-24T09:40:36Z
2019-06-24T07:43:22Z,42.805,6.029,13.2958,4.59958,2469.821,2019-6-24T09:43:39Z
2019-06-24T07:46:25Z,42.805,6.029,13.2957,4.59958,2469.806,2019-6-24T09:46:42Z
2019-06-24T07:49:28Z,42.805,6.029,13.2957,4.59954,2469.844,2019-6-24T09:49:45Z
2019-06-24T07:52:31Z,42.805,6.029,13.2959,4.59956,2469.821,2019-6-24T09:52:48Z
2019-06-24T07:55:34Z,42.805,6.029,13.2958,4.59957,2469.844,2019-6-24T09:55:51Z
2019-06-24T07:58:37Z,42.805,6.029,13.2960,4.59956,2469.806,2019-6-24T09:58:54Z
2019-06-24T08:01:40Z,42.805,6.029,13.2956,4.59954,2469.806,2019-6-24T10:01:57Z
2019-06-24T08:04:43Z,42.805,6.029,13.2954,4.59955,2469.844,2019-6-24T10:05:00Z
2019-06-24T08:07:46Z,42.805,6.029,13.2960,4.59954,2469.83,2019-6-24T10:08:03Z
2019-06-24T08:10:49Z,42.805,6.029,13.2957,4.59954,2469.806,2019-6-24T10:11:06Z
2019-06-24T08:13:52Z,42.805,6.029,13.2959,4.59954,2469.853,2019-6-24T10:14:08Z
2019-06-24T08:16:55Z,42.805,6.029,13.2955,4.59954,2469.83,2019-6-24T10:17:11Z
2019-06-24T08:19:58Z,42.805,6.029,13.2959,4.59957,2469.844,2019-6-24T10:20:14Z
2019-06-24T08:23:01Z,42.805,6.029,13.2967,4.59953,2469.821,2019-6-24T10:23:17Z
2019-06-24T08:26:04Z,42.805,6.029,13.2954,4.59961,2469.853,2019-6-24T10:26:20Z
2019-06-24T08:29:07Z,42.805,6.029,13.2958,4.59956,2469.853,2019-6-24T10:29:23Z
2019-06-24T08:32:09Z,42.805,6.029,13.2955,4.59956,2469.821,2019-6-24T10:32:26Z
2019-06-24T08:35:12Z,42.805,6.029,13.2956,4.59956,2469.83,2019-6-24T10:35:29Z
2019-06-24T08:38:15Z,42.805,6.029,13.2957,4.59957,2469.853,2019-6-24T10:38:32Z
2019-06-24T08:41:18Z,42.805,6.029,13.2958,4.59964,2469.83,2019-6-24T10:41:35Z
2019-06-24T08:44:21Z,42.805,6.029,13.2958,4.59956,2469.867,2019-6-24T10:44:38Z
2019-06-24T08:47:24Z,42.805,6.029,13.2958,4.59959,2469.806,2019-6-24T10:47:41Z
2019-06-24T08:50:27Z,42.805,6.029,13.2959,4.59956,2469.844,2019-6-24T10:50:44Z
2019-06-24T08:53:30Z,42.805,6.029,13.2956,4.59956,2469.853,2019-6-24T10:53:47Z
2019-06-24T08:56:33Z,42.805,6.029,13.2954,4.59956,2469.867,2019-6-24T10:56:50Z
2019-06-24T08:59:36Z,42.805,6.029,13.2952,4.59956,2469.83,2019-6-24T10:59:53Z
2019-06-24T09:02:39Z,42.805,6.029,13.2956,4.59958,2469.867,2019-6-24T11:02:56Z
2019-06-24T09:05:42Z,42.805,6.029,13.2960,4.59958,2469.844,2019-6-24T11:05:59Z
2019-06-24T09:08:45Z,42.805,6.029,13.2957,4.59958,2469.853,2019-6-24T11:09:02Z
2019-06-24T09:11:48Z,42.805,6.029,13.2958,4.59958,2469.844,2019-6-24T11:12:05Z
2019-06-24T09:14:51Z,42.805,6.029,13.2957,4.59958,2469.844,2019-6-24T11:15:08Z
2019-06-24T09:17:54Z,42.805,6.029,13.2957,4.59956,2469.83,2019-6-24T11:18:10Z
2019-06-24T09:20:57Z,42.805,6.029,13.2955,4.59957,2469.853,2019-6-24T11:21:13Z
2019-06-24T09:24:00Z,42.805,6.029,13.2960,4.59959,2469.853,2019-6-24T11:24:16Z
2019-06-24T09:27:03Z,42.805,6.029,13.2954,4.59956,2469.853,2019-6-24T11:27:19Z
2019-06-24T09:30:06Z,42.805,6.029,13.2959,4.59957,2469.853,2019-6-24T11:30:22Z
2019-06-24T09:33:09Z,42.805,6.029,13.2959,4.59957,2469.876,2019-6-24T11:33:25Z
2019-06-24T09:36:11Z,42.805,6.029,13.2956,4.59960,2469.844,2019-6-24T11:36:28Z
2019-06-24T09:39:14Z,42.805,6.029,13.2954,4.59958,2469.867,2019-6-24T11:39:31Z
2019-06-24T09:42:17Z,42.805,6.029,13.2952,4.59958,2469.844,2019-6-24T11:42:34Z
2019-06-24T09:45:20Z,42.805,6.029,13.2957,4.59957,2469.867,2019-6-24T11:45:37Z
2019-06-24T09:48:23Z,42.805,6.029,13.2955,4.59958,2469.867,2019-6-24T11:48:40Z
2019-06-24T09:51:26Z,42.805,6.029,13.2956,4.59968,2469.853,2019-6-24T11:51:43Z
2019-06-24T09:54:29Z,42.805,6.029,13.2960,4.59955,2469.853,2019-6-24T11:54:46Z
2019-06-24T09:57:32Z,42.805,6.029,13.2957,4.59956,2469.867,2019-6-24T11:57:49Z
2019-06-24T10:00:35Z,42.805,6.029,13.2958,4.59955,2469.83,2019-6-24T12:00:52Z
2019-06-24T10:03:38Z,42.805,6.029,13.2958,4.59955,2469.83,2019-6-24T12:03:55Z
2019-06-24T10:06:41Z,42.805,6.029,13.2957,4.59956,2469.867,2019-6-24T12:06:58Z
2019-06-24T10:09:44Z,42.805,6.029,13.2954,4.59956,2469.83,2019-6-24T12:10:01Z
2019-06-24T10:12:47Z,42.805,6.029,13.2954,4.59955,2469.867,2019-6-24T12:13:04Z
2019-06-24T10:15:50Z,42.805,6.029,13.2958,4.59958,2469.876,2019-6-24T12:16:07Z
2019-06-24T10:18:53Z,42.805,6.029,13.2964,4.59961,2469.867,2019-6-24T12:19:10Z
2019-06-24T10:21:56Z,42.805,6.029,13.2959,4.59957,2469.853,2019-6-24T12:22:13Z
2019-06-24T10:24:59Z,42.805,6.029,13.2962,4.59958,2469.844,2019-6-24T12:25:15Z
2019-06-24T10:28:02Z,42.805,6.029,13.2961,4.59956,2469.89,2019-6-24T12:28:18Z
2019-06-24T10:31:05Z,42.805,6.029,13.2966,4.59956,2469.853,2019-6-24T12:31:21Z
2019-06-24T10:34:08Z,42.805,6.029,13.2957,4.59956,2469.853,2019-6-24T12:34:24Z
2019-06-24T10:37:11Z,42.805,6.029,13.2964,4.59956,2469.853,2019-6-24T12:37:27Z
2019-06-24T10:40:13Z,42.805,6.029,13.2958,4.59958,2469.89,2019-6-24T12:40:30Z
2019-06-24T10:43:16Z,42.805,6.029,13.2965,4.59955,2469.853,2019-6-24T12:43:33Z
2019-06-24T10:46:19Z,42.805,6.029,13.2963,4.59956,2469.876,2019-6-24T12:46:36Z
2019-06-24T10:49:22Z,42.805,6.029,13.2955,4.59956,2469.876,2019-6-24T12:49:39Z
2019-06-24T10:52:25Z,42.805,6.029,13.2957,4.59955,2469.867,2019-6-24T12:52:42Z
2019-06-24T10:55:28Z,42.805,6.029,13.2959,4.59957,2469.867,2019-6-24T12:55:45Z
2019-06-24T10:58:31Z,42.805,6.029,13.2958,4.59959,2469.853,2019-6-24T12:58:48Z
2019-06-24T11:01:34Z,42.805,6.029,13.2957,4.59961,2469.89,2019-6-24T13:01:51Z
2019-06-24T11:04:37Z,42.805,6.029,13.2958,4.59960,2469.876,2019-6-24T13:04:54Z
2019-06-24T11:07:40Z,42.805,6.029,13.2958,4.59956,2469.876,2019-6-24T13:07:57Z
2019-06-24T11:10:43Z,42.805,6.029,13.2957,4.59955,2469.867,2019-6-24T13:11:00Z
2019-06-24T11:13:46Z,42.805,6.029,13.2960,4.59958,2469.853,2019-6-24T13:14:03Z
2019-06-24T11:16:49Z,42.805,6.029,13.2960,4.59957,2469.853,2019-6-24T13:17:06Z
2019-06-24T11:19:52Z,42.805,6.029,13.2962,4.59961,2469.867,2019-6-24T13:20:09Z
2019-06-24T11:22:55Z,42.805,6.029,13.2962,4.59957,2469.876,2019-6-24T13:23:12Z
2019-06-24T11:25:58Z,42.805,6.029,13.2958,4.59960,2469.83,2019-6-24T13:26:15Z
2019-06-24T11:29:01Z,42.805,6.029,13.2957,4.59958,2469.853,2019-6-24T13:29:17Z
2019-06-24T11:32:04Z,42.805,6.029,13.2954,4.59956,2469.867,2019-6-24T13:32:20Z
2019-06-24T11:35:07Z,42.805,6.029,13.2957,4.59960,2469.853,2019-6-24T13:35:23Z
2019-06-24T11:38:10Z,42.805,6.029,13.2962,4.59956,2469.876,2019-6-24T13:38:26Z
2019-06-24T11:41:13Z,42.805,6.029,13.2958,4.59956,2469.876,2019-6-24T13:41:29Z
2019-06-24T11:44:15Z,42.805,6.029,13.2961,4.59956,2469.867,2019-6-24T13:44:32Z
2019-06-24T11:47:18Z,42.805,6.029,13.2968,4.59956,2469.853,2019-6-24T13:47:35Z
2019-06-24T11:50:21Z,42.805,6.029,13.2963,4.59958,2469.853,2019-6-24T13:50:38Z
2019-06-24T11:53:24Z,42.805,6.029,13.2961,4.59957,2469.844,2019-6-24T13:53:41Z
2019-06-24T11:56:27Z,42.805,6.029,13.2957,4.59955,2469.853,2019-6-24T13:56:44Z
2019-06-24T11:59:30Z,42.805,6.029,13.2953,4.59956,2469.89,2019-6-24T13:59:47Z
2019-06-24T12:02:33Z,42.805,6.029,13.2957,4.59956,2469.844,2019-6-24T14:02:50Z
2019-06-24T12:05:36Z,42.805,6.029,13.2955,4.59954,2469.89,2019-6-24T14:05:53Z
2019-06-24T12:08:39Z,42.805,6.029,13.2957,4.59955,2469.844,2019-6-24T14:08:56Z
2019-06-24T12:11:42Z,42.805,6.029,13.2953,4.59956,2469.853,2019-6-24T14:11:59Z
2019-06-24T12:14:45Z,42.805,6.029,13.2961,4.59955,2469.839,2019-6-24T14:15:02Z
2019-06-24T12:17:48Z,42.805,6.029,13.2970,4.59956,2469.83,2019-6-24T14:18:05Z
2019-06-24T12:20:51Z,42.805,6.029,13.2956,4.59955,2469.853,2019-6-24T14:21:08Z
2019-06-24T12:23:54Z,42.805,6.029,13.2953,4.59955,2469.867,2019-6-24T14:24:11Z
2019-06-24T12:26:57Z,42.805,6.029,13.2957,4.59957,2469.867,2019-6-24T14:27:14Z
2019-06-24T12:30:00Z,42.805,6.029,13.2957,4.59954,2469.853,2019-6-24T14:30:17Z
2019-06-24T12:33:03Z,42.805,6.029,13.2957,4.59956,2469.876,2019-6-24T14:33:19Z
2019-06-24T12:36:06Z,42.805,6.029,13.2958,4.59959,2469.853,2019-6-24T14:36:22Z
2019-06-24T12:39:09Z,42.805,6.029,13.2955,4.59956,2469.89,2019-6-24T14:39:25Z
2019-06-24T12:42:12Z,42.805,6.029,13.2958,4.59953,2469.853,2019-6-24T14:42:28Z
2019-06-24T12:45:15Z,42.805,6.029,13.2958,4.59956,2469.853,2019-6-24T14:45:31Z
2019-06-24T12:48:18Z,42.805,6.029,13.2955,4.59954,2469.876,2019-6-24T14:48:34Z
2019-06-24T12:51:20Z,42.805,6.029,13.2958,4.59954,2469.83,2019-6-24T14:51:37Z
2019-06-24T12:54:23Z,42.805,6.029,13.2956,4.59956,2469.89,2019-6-24T14:54:40Z
2019-06-24T12:57:26Z,42.805,6.029,13.2957,4.59958,2469.853,2019-6-24T14:57:43Z
2019-06-24T13:00:29Z,42.805,6.029,13.2954,4.59957,2469.844,2019-6-24T15:00:46Z
2019-06-24T13:03:32Z,42.805,6.029,13.2958,4.59954,2469.853,2019-6-24T15:03:49Z
2019-06-24T13:06:35Z,42.805,6.029,13.2954,4.59954,2469.83,2019-6-24T15:06:52Z
2019-06-24T13:09:38Z,42.805,6.029,13.2956,4.59957,2469.853,2019-6-24T15:09:55Z
2019-06-24T13:12:41Z,42.805,6.029,13.2958,4.59954,2469.844,2019-6-24T15:12:58Z
2019-06-24T13:15:44Z,42.805,6.029,13.2957,4.59953,2469.83,2019-6-24T15:16:01Z
2019-06-24T13:18:47Z,42.805,6.029,13.2957,4.59955,2469.876,2019-6-24T15:19:04Z
2019-06-24T13:21:50Z,42.805,6.029,13.2957,4.59954,2469.867,2019-6-24T15:22:07Z
2019-06-24T13:24:53Z,42.805,6.029,13.2958,4.59954,2469.853,2019-6-24T15:25:10Z
2019-06-24T13:27:56Z,42.805,6.029,13.2958,4.59957,2469.844,2019-6-24T15:28:13Z
2019-06-24T13:30:59Z,42.805,6.029,13.2957,4.59954,2469.853,2019-6-24T15:31:16Z
2019-06-24T13:34:02Z,42.805,6.029,13.2958,4.59954,2469.83,2019-6-24T15:34:19Z
2019-06-24T13:37:05Z,42.805,6.029,13.2956,4.59958,2469.867,2019-6-24T15:37:22Z
2019-06-24T13:40:08Z,42.805,6.029,13.2953,4.59954,2469.876,2019-6-24T15:40:24Z
2019-06-24T13:43:11Z,42.805,6.029,13.2958,4.59954,2469.89,2019-6-24T15:43:27Z
2019-06-24T13:46:14Z,42.805,6.029,13.2956,4.59962,2469.867,2019-6-24T15:46:30Z
2019-06-24T13:49:17Z,42.805,6.029,13.2958,4.59957,2469.853,2019-6-24T15:49:33Z
2019-06-24T13:52:20Z,42.805,6.029,13.2959,4.59962,2469.821,2019-6-24T15:52:36Z
2019-06-24T13:55:22Z,42.805,6.029,13.2956,4.59958,2469.867,2019-6-24T15:55:39Z
2019-06-24T13:58:25Z,42.805,6.029,13.2956,4.59957,2469.876,2019-6-24T15:58:42Z
2019-06-24T14:01:28Z,42.805,6.029,13.2956,4.59955,2469.876,2019-6-24T16:01:45Z
2019-06-24T14:04:31Z,42.805,6.029,13.2955,4.59953,2469.853,2019-6-24T16:04:48Z
2019-06-24T14:07:34Z,42.805,6.029,13.2958,4.59956,2469.806,2019-6-24T16:07:51Z
2019-06-24T14:10:37Z,42.805,6.029,13.2958,4.59955,2469.806,2019-6-24T16:10:54Z
2019-06-24T14:13:40Z,42.805,6.029,13.2957,4.59955,2469.867,2019-6-24T16:13:57Z
2019-06-24T14:16:43Z,42.805,6.029,13.2957,4.59953,2469.821,2019-6-24T16:17:00Z
2019-06-24T14:19:46Z,42.805,6.029,13.2956,4.59954,2469.806,2019-6-24T16:20:03Z
2019-06-24T14:22:49Z,42.805,6.029,13.2957,4.59953,2469.844,2019-6-24T16:23:06Z
2019-06-24T14:25:52Z,42.805,6.029,13.2957,4.59954,2469.806,2019-6-24T16:26:09Z
2019-06-24T14:28:55Z,42.805,6.029,13.2954,4.59954,2469.89,2019-6-24T16:29:12Z
2019-06-24T14:31:58Z,42.805,6.029,13.2956,4.59954,2469.806,2019-6-24T16:32:15Z
2019-06-24T14:35:01Z,42.805,6.029,13.2957,4.59958,2469.844,2019-6-24T16:35:18Z
2019-06-24T14:38:04Z,42.805,6.029,13.2958,4.59956,2469.821,2019-6-24T16:38:21Z
2019-06-24T14:41:07Z,42.805,6.029,13.2958,4.59955,2469.853,2019-6-24T16:41:24Z
2019-06-24T14:44:10Z,42.805,6.029,13.2959,4.59954,2469.821,2019-6-24T16:44:26Z
2019-06-24T14:47:13Z,42.805,6.029,13.2962,4.59957,2469.83,2019-6-24T16:47:29Z
2019-06-24T14:50:16Z,42.805,6.029,13.2957,4.59955,2469.83,2019-6-24T16:50:32Z
2019-06-24T14:53:19Z,42.805,6.029,13.2957,4.59963,2469.844,2019-6-24T16:53:35Z
2019-06-24T14:56:22Z,42.805,6.029,13.2957,4.59954,2469.821,2019-6-24T16:56:38Z
2019-06-24T14:59:24Z,42.805,6.029,13.2956,4.59954,2469.844,2019-6-24T16:59:41Z
2019-06-24T15:02:27Z,42.805,6.029,13.2960,4.59954,2469.83,2019-6-24T17:02:44Z
2019-06-24T15:05:30Z,42.805,6.029,13.2958,4.59954,2469.806,2019-6-24T17:05:47Z
2019-06-24T15:08:33Z,42.805,6.029,13.2957,4.59956,2469.806,2019-6-24T17:08:50Z
2019-06-24T15:11:36Z,42.805,6.029,13.2955,4.59959,2469.797,2019-6-24T17:11:53Z
2019-06-24T15:14:39Z,42.805,6.029,13.2958,4.59954,2469.806,2019-6-24T17:14:56Z